TimeCDT,TemperatureF,Dew PointF,Humidity,Sea Level PressureIn,VisibilityMPH,Wind Direction,Wind SpeedMPH,Gust SpeedMPH,PrecipitationIn,Events,Conditions,WindDirDegrees,DateUTC
12:15 AM,60.1,56.8,89,30.28,10.0,SSE,6.9,-,N/A,,Clear,160,2013-03-15 05:15:00
12:35 AM,60.3,56.7,88,30.28,10.0,SSE,6.9,-,N/A,,Clear,160,2013-03-15 05:35:00
1:15 AM,59.9,56.3,88,30.27,10.0,SSE,6.9,-,N/A,,Clear,160,2013-03-15 06:15:00
1:35 AM,59.4,55.9,88,30.26,10.0,SSE,6.9,-,N/A,,Clear,160,2013-03-15 06:35:00
1:55 AM,59.4,56.3,90,30.26,10.0,SSE,6.9,-,N/A,,Clear,160,2013-03-15 06:55:00
2:15 AM,59.4,56.5,90,30.25,10.0,SSE,6.9,-,N/A,,Clear,160,2013-03-15 07:15:00
2:35 AM,59.7,57.0,91,30.23,10.0,South,8.1,-,N/A,,Clear,170,2013-03-15 07:35:00
2:55 AM,60.8,58.1,91,30.22,10.0,SSE,6.9,-,N/A,,Clear,160,2013-03-15 07:55:00
3:15 AM,61.0,57.9,90,30.22,10.0,SSE,5.8,-,N/A,,Clear,160,2013-03-15 08:15:00
3:35 AM,60.4,57.6,90,30.21,10.0,South,5.8,-,N/A,,Clear,170,2013-03-15 08:35:00
3:55 AM,59.9,57.2,91,30.21,10.0,SSE,4.6,-,N/A,,Clear,150,2013-03-15 08:55:00
4:15 AM,59.7,57.4,92,30.21,10.0,SSE,5.8,-,N/A,,Clear,150,2013-03-15 09:15:00
4:35 AM,59.2,56.8,92,30.20,10.0,SSE,5.8,-,N/A,,Clear,160,2013-03-15 09:35:00
4:55 AM,58.5,56.3,93,30.20,10.0,SSE,6.9,-,N/A,,Clear,160,2013-03-15 09:55:00
5:15 AM,58.1,55.9,93,30.20,10.0,SSE,5.8,-,N/A,,Clear,160,2013-03-15 10:15:00
5:35 AM,57.9,55.9,93,30.20,10.0,South,8.1,-,N/A,,Clear,170,2013-03-15 10:35:00
5:55 AM,57.9,56.1,94,30.20,10.0,South,6.9,-,N/A,,Clear,170,2013-03-15 10:55:00
6:15 AM,59.2,57.4,94,30.20,10.0,South,6.9,-,N/A,,Clear,170,2013-03-15 11:15:00
6:35 AM,59.4,57.6,94,30.20,10.0,South,5.8,-,N/A,,Clear,180,2013-03-15 11:35:00
6:55 AM,59.9,57.9,93,30.21,10.0,South,6.9,-,N/A,,Clear,180,2013-03-15 11:55:00
7:15 AM,59.9,57.9,93,30.21,10.0,South,6.9,-,N/A,,Clear,180,2013-03-15 12:15:00
7:35 AM,59.9,58.1,94,30.21,10.0,South,5.8,-,N/A,,Clear,190,2013-03-15 12:35:00
7:55 AM,59.9,58.1,94,30.21,10.0,South,4.6,-,N/A,,Clear,170,2013-03-15 12:55:00
8:15 AM,59.7,57.9,94,30.21,10.0,South,4.6,-,N/A,,Clear,180,2013-03-15 13:15:00
8:35 AM,61.9,60.3,94,30.22,10.0,South,4.6,-,N/A,,Clear,180,2013-03-15 13:35:00
8:55 AM,65.3,62.4,90,30.22,10.0,South,8.1,-,N/A,,Clear,190,2013-03-15 13:55:00
9:15 AM,67.6,62.2,83,30.23,10.0,South,9.2,-,N/A,,Clear,180,2013-03-15 14:15:00
9:35 AM,69.1,61.3,76,30.23,10.0,South,15.0,-,N/A,,Clear,180,2013-03-15 14:35:00
10:55 AM,73.0,59.4,62,30.23,10.0,South,16.1,23.0,N/A,,Scattered Clouds,180,2013-03-15 15:55:00
11:15 AM,73.6,59.2,61,30.23,10.0,South,17.3,24.2,N/A,,Scattered Clouds,180,2013-03-15 16:15:00
11:35 AM,73.9,59.2,60,30.23,10.0,South,17.3,25.3,N/A,,Scattered Clouds,190,2013-03-15 16:35:00
11:55 AM,73.9,58.8,59,30.23,10.0,South,20.7,26.5,N/A,,Scattered Clouds,180,2013-03-15 16:55:00
12:15 PM,74.5,59.0,58,30.22,10.0,South,18.4,29.9,N/A,,Scattered Clouds,180,2013-03-15 17:15:00
12:35 PM,74.3,58.8,58,30.21,10.0,South,18.4,25.3,N/A,,Scattered Clouds,190,2013-03-15 17:35:00
12:55 PM,75.2,59.0,57,30.21,10.0,South,18.4,26.5,N/A,,Scattered Clouds,190,2013-03-15 17:55:00
1:15 PM,75.7,59.2,56,30.20,10.0,SSE,19.6,27.6,N/A,,Scattered Clouds,160,2013-03-15 18:15:00
1:35 PM,75.7,59.0,56,30.19,10.0,South,16.1,27.6,N/A,,Scattered Clouds,180,2013-03-15 18:35:00
1:55 PM,76.5,58.8,54,30.18,10.0,South,17.3,25.3,N/A,,Clear,180,2013-03-15 18:55:00
2:15 PM,76.8,58.6,53,30.16,10.0,SSE,18.4,26.5,N/A,,Scattered Clouds,160,2013-03-15 19:15:00
2:35 PM,76.5,58.8,54,30.15,10.0,South,19.6,26.5,N/A,,Clear,170,2013-03-15 19:35:00
2:55 PM,76.5,58.5,54,30.14,10.0,South,20.7,28.8,N/A,,Clear,170,2013-03-15 19:55:00
3:15 PM,76.5,58.6,54,30.13,10.0,SSE,18.4,25.3,N/A,,Clear,160,2013-03-15 20:15:00
3:35 PM,76.5,58.6,54,30.12,10.0,SSE,19.6,27.6,N/A,,Clear,160,2013-03-15 20:35:00
3:55 PM,75.7,58.3,55,30.11,10.0,SSE,23.0,28.8,N/A,,Clear,150,2013-03-15 20:55:00
4:15 PM,75.6,58.5,55,30.10,10.0,South,21.9,28.8,N/A,,Clear,170,2013-03-15 21:15:00
4:35 PM,75.2,58.8,57,30.09,10.0,SSE,23.0,29.9,N/A,,Clear,150,2013-03-15 21:35:00
4:55 PM,74.7,59.0,58,30.08,10.0,SSE,18.4,26.5,N/A,,Clear,150,2013-03-15 21:55:00
5:15 PM,74.7,59.7,60,30.08,10.0,SSE,20.7,28.8,N/A,,Clear,150,2013-03-15 22:15:00
5:35 PM,74.1,59.9,61,30.07,10.0,SE,20.7,29.9,N/A,,Clear,140,2013-03-15 22:35:00
5:55 PM,73.8,59.9,62,30.07,10.0,SE,18.4,26.5,N/A,,Clear,140,2013-03-15 22:55:00
6:15 PM,72.9,59.9,64,30.07,10.0,SSE,23.0,28.8,N/A,,Clear,150,2013-03-15 23:15:00
6:35 PM,72.1,60.1,66,30.07,10.0,SSE,20.7,25.3,N/A,,Clear,150,2013-03-15 23:35:00
6:55 PM,71.2,60.3,68,30.07,10.0,SSE,18.4,25.3,N/A,,Clear,150,2013-03-15 23:55:00
7:15 PM,70.2,60.6,72,30.07,10.0,SSE,17.3,23.0,N/A,,Clear,150,2013-03-16 00:15:00
7:35 PM,69.1,60.8,75,30.06,10.0,SSE,19.6,23.0,N/A,,Clear,150,2013-03-16 00:35:00
7:55 PM,68.4,60.8,77,30.06,10.0,SSE,17.3,23.0,N/A,,Clear,150,2013-03-16 00:55:00
8:15 PM,68.0,61.0,78,30.06,10.0,SSE,15.0,21.9,N/A,,Clear,150,2013-03-16 01:15:00
8:35 PM,68.0,61.2,79,30.06,10.0,SSE,18.4,24.2,N/A,,Clear,160,2013-03-16 01:35:00
8:55 PM,67.8,61.3,80,30.06,10.0,SSE,15.0,24.2,N/A,,Clear,160,2013-03-16 01:55:00
9:15 PM,67.5,61.7,82,30.07,10.0,SSE,17.3,-,N/A,,Clear,160,2013-03-16 02:15:00
9:35 PM,67.5,61.5,81,30.07,10.0,SSE,16.1,-,N/A,,Clear,160,2013-03-16 02:35:00
9:55 PM,67.3,61.5,82,30.07,10.0,SSE,15.0,-,N/A,,Clear,160,2013-03-16 02:55:00
10:15 PM,67.1,61.7,83,30.08,10.0,SSE,15.0,18.4,N/A,,Clear,160,2013-03-16 03:15:00
10:35 PM,66.7,61.7,84,30.08,10.0,SSE,11.5,-,N/A,,Clear,160,2013-03-16 03:35:00
10:55 PM,66.4,61.7,85,30.08,10.0,SSE,10.4,-,N/A,,Clear,160,2013-03-16 03:55:00
11:15 PM,66.2,61.7,85,30.08,10.0,SSE,9.2,-,N/A,,Clear,160,2013-03-16 04:15:00
11:35 PM,66.0,61.7,86,30.07,10.0,SSE,10.4,-,N/A,,Clear,160,2013-03-16 04:35:00
11:55 PM,65.8,61.9,87,30.07,10.0,SSE,11.5,-,N/A,,Clear,160,2013-03-16 04:55:00